Homestead AFB, FL

9:34 PM EDT on April 24, 2017 (GMT -0400)
Dade County-Homestead Regional

Weather History for KHST - November, 2011

Change the Weather History Date:

Monday, November 21, 2011

  Actual Average Record
Temperature  
Mean Temperature 77 °F -  
Max Temperature 81 °F 79 °F 88 °F (1986)
Min Temperature 73 °F 60 °F 42 °F (1937)
Cooling Degree Days 12    
Growing Degree Days 27 (Base 50)    
Moisture  
Dew Point 72 °F    
Average Humidity 84    
Maximum Humidity 97    
Minimum Humidity 75    
Precipitation  
Precipitation 0.03 in - - ()
Sea Level Pressure  
Sea Level Pressure 30.16 in    
Wind  
Wind Speed 8 mph (East)    
Max Wind Speed 16 mph    
Max Gust Speed 21 mph    
Visibility 10 miles    
Events Rain    
Averages and records for this station are not official NWS values.
T = Trace of Precipitation, MM = Missing Value Source: NWS Daily Summary

Daily Weather History Graph

Daily Weather History Graph

Search for Another Location

Airport or City:

Trip Planner

Search our weather history database for the weather conditions in past years. The results will help you decide how hot, cold, wet, or windy it might be!

Date:

Astronomy

Nov. 21, 2011 Rise Set
Actual Time 6:43 AM EST 5:31 PM EST
Civil Twilight 6:18 AM EST 5:55 PM EST
Nautical Twilight 5:50 AM EST 6:23 PM EST
Astronomical Twilight 5:23 AM EST 6:51 PM EST
Moon 2:40 AM EST (11/21) 2:35 PM EST (11/21)
Length of Visible Light 11h 37m
Length of Day
10h 48m
Waning Crescent, 18% of the Moon is Illuminated
Nov 21
Waning Crescent
Nov 25
New
Dec 2
First Quarter
Dec 10
Full
Dec 17
Last Quarter

Hourly Weather History & Observations

Time (EST) Temp. Heat Index Dew Point Humidity Pressure Visibility Wind Dir Wind Speed Gust Speed Precip Events Conditions
12:55 AM 75.9 °F - 72.9 °F 90% 30.17 in 10.0 mi East 6.9 mph - N/A   Clear
1:55 AM 75.4 °F - 72.3 °F 90% 30.16 in 10.0 mi ENE 6.9 mph - N/A   Clear
2:55 AM 75.2 °F - 72.1 °F 90% 30.14 in 10.0 mi ENE 8.1 mph - N/A   Clear
3:55 AM 74.7 °F - 72.1 °F 92% 30.14 in 10.0 mi ENE 4.6 mph - N/A   Clear
4:55 AM 74.1 °F - 72.3 °F 94% 30.14 in 10.0 mi ENE 4.6 mph - N/A   Clear
5:55 AM 74.1 °F - 72.7 °F 95% 30.15 in 10.0 mi ENE 4.6 mph - N/A   Partly Cloudy
6:55 AM 73.6 °F - 72.7 °F 97% 30.17 in 10.0 mi East 3.5 mph - N/A   Clear
7:55 AM 77.2 °F - 74.3 °F 91% 30.18 in 10.0 mi East 6.9 mph - N/A   Partly Cloudy
8:55 AM 79.5 °F - 73.6 °F 82% 30.20 in 10.0 mi East 9.2 mph - N/A   Clear
9:55 AM 80.6 °F 85.4 °F 73.4 °F 79% 30.21 in 10.0 mi East 11.5 mph - N/A   Clear
10:55 AM 80.2 °F 84.7 °F 73.6 °F 80% 30.21 in 10.0 mi East 9.2 mph - N/A   Partly Cloudy
11:49 AM 80.6 °F 85.4 °F 73.4 °F 79% 30.19 in 4.0 mi East 13.8 mph - N/A Rain Heavy Rain
11:55 AM 81.1 °F 86.4 °F 73.8 °F 78% 30.19 in 4.0 mi ESE 9.2 mph - 0.03 in Rain Heavy Rain
12:05 PM 78.8 °F - 75.2 °F 89% 30.18 in 10.0 mi East 10.4 mph - N/A   Partly Cloudy
12:55 PM 80.8 °F 85.4 °F 72.9 °F 77% 30.17 in 10.0 mi East 15.0 mph - 0.00 in   Clear
1:55 PM 81.7 °F 86.9 °F 73.0 °F 75% 30.13 in 10.0 mi East 15.0 mph - N/A   Partly Cloudy
2:55 PM 80.2 °F 84.9 °F 73.9 °F 81% 30.12 in 10.0 mi East 16.1 mph 20.7 mph N/A   Clear
3:55 PM 78.8 °F - 72.1 °F 80% 30.12 in 10.0 mi East 15.0 mph - N/A   Partly Cloudy
4:55 PM 78.4 °F - 70.5 °F 77% 30.13 in 10.0 mi East 12.7 mph - N/A   Clear
5:55 PM 76.6 °F - 70.5 °F 81% 30.13 in 10.0 mi East 10.4 mph - N/A   Partly Cloudy
6:55 PM 76.1 °F - 69.3 °F 79% 30.14 in 10.0 mi East 9.2 mph - N/A   Clear
7:55 PM 76.3 °F - 69.4 °F 79% 30.16 in 10.0 mi East 9.2 mph - N/A   Clear
8:55 PM 76.1 °F - 69.1 °F 79% 30.16 in 10.0 mi East 9.2 mph - N/A   Clear
9:55 PM 75.9 °F - 68.7 °F 78% 30.16 in 10.0 mi East 9.2 mph - N/A   Clear
10:55 PM 75.6 °F - 69.3 °F 81% 30.16 in 10.0 mi East 5.8 mph - N/A   Clear
11:55 PM 75.7 °F - 69.4 °F 81% 30.16 in 10.0 mi East 8.1 mph - N/A   Scattered Clouds